Temp
9 9 9 9 8 8 8 8 9 8 8 9 9 8 9 9 8 8 8 9 9 10 10 11 11 12 12 13 15 17 15 17 19 21 22 23 21 22 20 20 20 18 19 19 16
9 9 9 9 9 9 8 8 8 8 8 8 8 8 8 8 8 8 9 9 9 10 10 10 11 12 12 13 15 16 15 18 21 22 23 22 22 21 21 19 18 17 17 16 15
9 9 9 9 9 9 9 8 8 8 8 8 8 8 8 8 8 8 9 9 9 10 10 10 11 12 13 14 15 16 16 20 22 19 22 21 22 21 21 19 20 17 15 15 14
9 9 9 9 9 9 9 9 9 9 9 8 8 8 7 7 8 8 9 9 10 9 10 10 10 11 13 14 15 16 18 21 19 19 22 20 22 21 21 18 20 19 16 15 14
9 9 9 9 9 9 9 9 9 9 9 9 8 8 9 8 7 8 8 9 9 9 9 10 8 11 13 15 16 16 18 18 16 18 21 21 20 20 18 18 19 18 16 14 14
10 10 9 9 9 10 9 9 10 9 9 9 9 8 8 8 7 7 8 8 8 8 9 9 10 10 14 16 16 18 18 17 17 18 19 19 18 19 17 17 18 17 16 15 15
10 10 10 10 10 10 10 10 10 10 10 10 9 9 8 7 7 7 7 7 8 8 8 8 9 7 14 15 17 18 16 16 17 17 17 19 17 18 17 17 16 16 16 16 15
10 10 10 10 10 10 10 10 11 11 10 10 10 9 8 7 7 6 7 7 7 7 8 8 8 8 11 17 17 16 16 14 17 17 16 16 16 15 17 17 17 16 16 16 15
10 10 10 11 11 11 11 11 11 11 11 10 10 10 8 8 8 7 6 6 6 6 7 8 7 11 14 13 14 15 13 15 15 17 16 16 15 16 16 18 18 17 16 15 15
10 11 11 11 11 11 11 11 11 11 11 10 10 10 9 8 8 6 6 6 6 6 7 7 10 12 13 11 10 13 14 15 13 15 16 15 14 15 16 17 18 18 17 16 15
11 11 11 11 11 12 12 11 11 11 11 10 10 10 9 9 8 7 6 6 7 8 8 9 11 10 13 14 16 16 16 16 14 16 16 15 15 15 15 16 17 17 18 17 16
11 11 11 11 11 12 12 11 11 10 10 10 11 10 10 9 8 8 8 7 7 10 12 12 10 11 15 15 15 16 16 13 13 15 15 16 16 15 15 15 17 17 17 17 17
11 11 11 11 11 11 12 11 10 11 10 12 11 10 10 11 10 9 9 9 11 13 12 11 11 12 14 15 15 15 15 14 14 14 16 16 16 14 15 15 15 15 16 16 16
10 10 11 11 11 11 11 11 11 11 9 11 12 11 11 11 10 10 10 10 12 11 11 10 12 13 14 12 11 14 11 14 13 11 9 15 9 14 12 13 14 14 14 15 14
10 10 10 10 10 10 11 11 11 10 9 11 11 11 11 11 11 11 11 11 11 10 11 8 9 10 10 10 10 11 12 14 13 8 12 14 9 15 13 12 13 14 14 14 13
10 10 10 10 10 10 10 10 10 8 7 9 12 12 13 12 12 11 11 11 11 11 9 8 9 9 9 10 11 11 12 12 10 6 7 11 9 10 12 14 12 13 13 13 12
10 10 10 10 9 10 10 10 7 7 10 10 10 12 12 11 12 12 12 10 9 8 6 9 9 9 9 11 11 11 11 5 7 6 8 2 6 12 13 12 12 12 13 12 12
11 10 10 10 10 10 10 9 8 10 10 11 11 12 11 11 11 12 12 10 10 11 6 8 7 8 9 9 9 11 9 8 9 7 7 8 8 9 11 12 13 13 12 12 12
11 10 10 10 10 10 9 6 8 10 11 11 12 10 12 11 11 12 10 10 9 9 9 9 8 9 8 9 8 10 9 11 10 11 7 6 12 12 10 10 11 11 12 12 12
12 10 10 10 11 10 9 9 9 9 9 10 10 11 12 11 12 12 11 9 10 10 10 11 7 9 9 8 9 9 10 9 7 8 11 9 13 8 8 8 10 11 11 11 10
11 10 11 11 11 11 7 8 9 8 8 9 11 12 12 12 12 11 11 9 10 10 11 11 9 8 9 9 10 8 8 11 10 10 8 8 8 11 6 8 9 11 11 10 9
10 10 12 11 10 11 9 10 9 9 8 10 10 11 11 11 12 10 10 9 9 9 11 9 9 6 10 9 9 9 10 12 6 11 6 5 6 11 9 10 11 11 10 10 9
10 11 11 11 10 9 8 9 9 9 10 10 10 10 10 11 10 11 10 9 8 9 8 9 9 6 9 8 8 8 10 11 10 7 9 7 7 10 11 11 11 10 10 9 9
10 9 11 11 11 11 10 10 9 8 9 9 10 9 10 11 11 10 9 8 7 9 7 7 10 10 7 10 10 9 10 10 8 5 8 6 9 9 9 9 10 10 10 9 8
9 9 9 10 10 11 11 10 10 8 8 8 9 9 10 10 11 11 8 9 7 7 8 8 8 11 10 11 10 10 10 8 5 8 9 12 10 12 8 8 10 10 10 9 8
8 8 9 10 9 11 8 9 10 10 9 9 8 10 10 10 10 10 10 8 10 8 9 8 8 10 7 10 9 7 8 9 8 9 8 9 9 13 13 11 11 10 9 9 8
7 7 7 9 10 10 10 11 10 10 9 8 9 10 9 9 9 8 8 8 8 9 8 9 8 7 8 9 8 6 8 8 9 10 9 8 10 13 10 10 10 9 9 8 7
Height
1509 1507 1504 1500 1497 1495 1491 1486 1481 1477 1472 1468 1465 1466 1469 1472 1477 1480 1483 1487 1489 1491 1493 1497 1501 1503 1506 1507 1507 1507 1511 1511 1505 1501 1498 1497 1504 1512 1516 1518 1522 1524 1524 1526 1534
1510 1508 1505 1502 1499 1496 1493 1489 1484 1480 1476 1471 1468 1467 1470 1473 1476 1480 1485 1486 1487 1490 1493 1496 1499 1503 1505 1505 1506 1503 1506 1501 1495 1492 1493 1498 1503 1512 1518 1520 1524 1526 1527 1528 1534
1510 1508 1505 1503 1500 1497 1494 1490 1487 1483 1479 1476 1472 1471 1472 1475 1479 1481 1483 1484 1487 1491 1493 1496 1497 1501 1503 1503 1502 1501 1499 1492 1494 1496 1494 1497 1504 1512 1515 1520 1519 1523 1526 1530 1534
1510 1508 1505 1502 1500 1497 1494 1491 1488 1485 1482 1479 1477 1476 1476 1477 1484 1482 1483 1485 1487 1490 1493 1494 1497 1499 1500 1498 1499 1500 1493 1492 1494 1496 1496 1501 1505 1510 1514 1518 1519 1520 1524 1529 1534
1510 1508 1505 1502 1499 1497 1495 1492 1489 1486 1484 1481 1480 1480 1481 1482 1484 1483 1483 1485 1488 1490 1492 1495 1496 1497 1496 1495 1498 1498 1494 1495 1496 1496 1499 1504 1508 1512 1517 1518 1520 1522 1526 1530 1534
1509 1507 1504 1501 1499 1496 1494 1493 1491 1488 1486 1484 1483 1483 1484 1486 1485 1485 1485 1487 1489 1490 1491 1492 1495 1495 1494 1493 1494 1493 1495 1498 1500 1500 1502 1506 1511 1513 1518 1519 1523 1525 1528 1531 1535
1509 1506 1504 1501 1498 1496 1494 1493 1492 1491 1488 1487 1486 1487 1487 1492 1489 1488 1488 1488 1490 1491 1491 1495 1496 1500 1491 1490 1491 1491 1498 1499 1503 1503 1506 1509 1517 1516 1517 1520 1524 1527 1529 1532 1536
1508 1506 1505 1502 1500 1498 1495 1494 1493 1492 1491 1489 1488 1488 1491 1493 1491 1490 1489 1489 1490 1491 1492 1493 1498 1499 1494 1488 1489 1492 1497 1508 1503 1504 1509 1512 1520 1517 1518 1521 1524 1527 1529 1533 1537
1508 1507 1505 1503 1502 1499 1497 1495 1494 1493 1492 1491 1490 1489 1494 1494 1494 1492 1491 1490 1491 1491 1492 1497 1499 1492 1488 1487 1495 1493 1506 1503 1509 1504 1507 1511 1515 1516 1517 1520 1523 1526 1530 1533 1536
1508 1507 1505 1504 1502 1501 1498 1496 1496 1494 1492 1491 1491 1494 1496 1498 1496 1494 1493 1492 1492 1493 1497 1498 1494 1488 1487 1492 1507 1500 1499 1499 1509 1508 1506 1512 1517 1516 1517 1519 1522 1525 1528 1532 1535
1507 1507 1506 1505 1503 1501 1498 1497 1499 1499 1495 1497 1497 1495 1497 1497 1496 1496 1494 1494 1494 1497 1498 1496 1492 1494 1489 1488 1487 1488 1490 1496 1502 1503 1505 1510 1515 1516 1518 1519 1521 1524 1527 1530 1534
1506 1506 1506 1505 1503 1502 1499 1497 1499 1502 1501 1500 1499 1498 1498 1498 1498 1499 1499 1498 1498 1494 1490 1494 1497 1494 1486 1486 1490 1489 1491 1505 1507 1504 1508 1507 1512 1514 1517 1520 1521 1524 1526 1529 1531
1506 1505 1504 1504 1503 1503 1501 1500 1499 1499 1499 1501 1501 1499 1500 1500 1500 1500 1500 1498 1495 1491 1493 1496 1499 1496 1490 1490 1491 1492 1494 1499 1504 1508 1506 1506 1515 1518 1518 1519 1521 1523 1524 1526 1528
1506 1504 1502 1501 1504 1501 1501 1500 1499 1498 1501 1506 1502 1503 1502 1500 1501 1500 1499 1500 1495 1497 1497 1502 1498 1494 1492 1499 1500 1500 1501 1494 1505 1518 1535 1511 1546 1516 1518 1521 1522 1523 1524 1526 1527
1507 1504 1501 1500 1501 1501 1501 1500 1499 1499 1514 1508 1505 1503 1501 1502 1504 1499 1498 1498 1499 1500 1499 1510 1504 1503 1504 1510 1506 1510 1503 1501 1508 1524 1521 1517 1540 1512 1513 1522 1521 1522 1523 1525 1527
1508 1505 1503 1502 1501 1501 1500 1499 1500 1508 1521 1511 1505 1504 1501 1502 1503 1502 1502 1501 1501 1500 1502 1510 1509 1511 1513 1511 1507 1506 1506 1510 1517 1534 1548 1526 1535 1532 1518 1514 1517 1521 1523 1525 1527
1508 1507 1504 1503 1503 1501 1501 1501 1509 1515 1511 1510 1507 1503 1501 1503 1503 1503 1503 1505 1508 1514 1520 1512 1513 1514 1514 1512 1511 1509 1513 1551 1552 1554 1546 1555 1546 1519 1511 1509 1512 1518 1523 1525 1526
1507 1506 1505 1503 1502 1502 1501 1504 1514 1509 1510 1508 1506 1501 1504 1503 1503 1502 1502 1508 1506 1505 1519 1518 1528 1517 1517 1518 1517 1512 1519 1531 1542 1549 1543 1538 1541 1525 1512 1513 1515 1518 1522 1524 1526
1508 1507 1505 1504 1502 1502 1503 1516 1516 1508 1508 1507 1505 1506 1502 1503 1504 1501 1507 1510 1512 1510 1512 1515 1521 1519 1518 1518 1519 1515 1523 1515 1522 1521 1538 1537 1516 1515 1514 1516 1517 1519 1522 1524 1525
1507 1506 1506 1505 1503 1503 1504 1511 1511 1512 1513 1510 1509 1505 1501 1504 1502 1500 1503 1510 1509 1510 1509 1507 1526 1518 1518 1519 1517 1516 1515 1525 1531 1542 1534 1528 1510 1523 1518 1516 1515 1517 1520 1522 1524
1505 1506 1506 1505 1505 1504 1511 1509 1510 1512 1512 1513 1507 1504 1503 1504 1503 1505 1506 1511 1510 1509 1507 1508 1513 1523 1519 1518 1516 1521 1520 1515 1518 1520 1537 1538 1527 1502 1508 1508 1512 1515 1518 1521 1523
1506 1506 1505 1504 1507 1505 1508 1507 1509 1510 1512 1511 1511 1509 1506 1506 1503 1508 1508 1510 1513 1511 1507 1510 1511 1528 1516 1517 1517 1518 1514 1509 1533 1519 1533 1539 1530 1500 1500 1504 1508 1512 1516 1519 1521
1507 1505 1505 1505 1507 1510 1512 1512 1511 1511 1509 1510 1508 1511 1511 1508 1509 1506 1509 1512 1512 1512 1513 1512 1511 1531 1522 1521 1518 1519 1513 1511 1513 1521 1520 1537 1523 1502 1500 1504 1507 1511 1514 1516 1519
1509 1507 1504 1504 1506 1506 1508 1509 1511 1512 1511 1512 1510 1510 1509 1508 1509 1509 1511 1512 1512 1512 1513 1513 1508 1510 1525 1509 1508 1513 1510 1511 1517 1533 1518 1524 1508 1507 1505 1506 1507 1510 1513 1516 1518
1512 1510 1508 1506 1505 1506 1508 1508 1508 1511 1511 1511 1510 1510 1509 1508 1507 1507 1514 1514 1514 1512 1513 1513 1514 1507 1506 1505 1507 1506 1507 1510 1520 1509 1511 1498 1502 1495 1498 1500 1504 1507 1511 1514 1516
1513 1513 1510 1507 1507 1505 1505 1508 1507 1508 1510 1509 1510 1505 1509 1509 1507 1506 1507 1511 1510 1515 1511 1511 1513 1509 1514 1505 1510 1512 1507 1503 1503 1503 1503 1501 1498 1489 1491 1495 1500 1504 1508 1510 1513
1514 1513 1512 1508 1506 1507 1504 1501 1504 1506 1509 1510 1509 1508 1509 1509 1509 1508 1509 1509 1509 1509 1512 1512 1511 1514 1512 1508 1508 1513 1496 1497 1493 1489 1492 1500 1489 1485 1489 1491 1494 1499 1503 1507 1510
Wind_Speed
16 17 19 21 22 24 27 24 23 19 15 12 5 5 9 14 13 15 11 15 17 11 19 12 8 7 8 12 15 18 3 9 13 10 9 20 11 3 9 13 7 6 4 18 29
14 14 16 17 17 20 21 24 25 24 18 15 9 7 6 11 14 14 11 15 15 14 15 14 14 10 11 14 12 8 4 11 10 9 5 18 17 10 6 13 7 15 18 24 22
11 13 15 17 17 17 18 18 20 23 20 14 12 6 10 12 13 6 14 16 14 13 14 18 16 14 14 14 16 10 5 8 15 8 5 19 15 17 7 7 14 19 20 19 21
10 13 15 16 17 17 16 15 16 17 19 15 11 9 12 10 3 2 10 10 13 14 15 14 16 6 11 10 21 6 17 8 5 5 13 10 13 10 6 5 8 19 20 16 22
10 13 14 14 15 16 13 12 15 13 16 15 9 11 12 7 6 5 7 9 9 11 13 13 4 13 10 15 20 14 8 11 5 7 9 14 4 4 12 5 10 21 19 19 18
11 13 14 14 16 12 9 12 13 14 14 16 12 7 9 10 7 3 5 9 7 9 8 15 12 8 11 15 15 14 12 11 5 8 8 8 6 1 7 10 13 17 19 19 18
11 13 13 15 13 8 10 12 9 12 13 14 13 18 17 9 7 6 1 5 8 10 8 17 17 14 5 8 22 13 8 8 7 7 3 5 3 1 9 11 13 15 16 18 16
10 10 11 13 10 10 12 12 5 7 6 7 10 9 8 6 12 10 4 5 7 8 15 13 11 21 21 14 7 8 8 6 4 7 2 5 5 8 9 13 14 15 16 17 15
8 8 8 9 6 8 11 17 5 6 5 8 8 3 4 6 4 11 7 6 4 7 13 13 15 15 4 6 4 8 7 7 5 6 6 6 8 10 11 12 15 16 16 15 15
6 5 6 8 4 4 5 6 16 15 11 6 8 5 7 7 7 7 14 15 12 9 8 5 7 3 4 5 6 7 10 9 8 6 6 7 6 6 8 9 14 15 18 14 14
4 2 3 5 7 8 7 3 2 2 18 8 7 9 5 5 5 8 6 9 8 7 3 10 4 5 8 8 6 8 7 8 8 3 4 9 8 8 8 6 12 9 12 13 11
4 3 2 2 4 8 8 7 7 2 2 9 12 11 8 4 5 6 4 3 2 3 11 4 5 8 2 7 3 6 10 8 7 4 2 8 7 7 9 8 9 10 10 10 11
6 4 5 5 6 5 7 9 5 2 3 5 8 8 7 9 5 2 3 5 7 5 5 5 4 7 3 5 4 3 0 6 7 3 3 6 1 6 2 6 3 7 6 6 9
10 7 5 6 6 6 3 6 6 1 2 7 7 7 5 2 3 3 4 3 3 6 6 5 4 3 1 6 7 4 9 8 11 5 3 3 3 7 8 7 8 9 7 7 5
10 11 4 1 4 4 4 5 3 2 3 8 4 5 6 5 1 7 7 6 7 7 3 2 6 9 9 5 6 2 4 5 6 5 2 2 4 2 11 7 7 11 10 10 9
11 9 7 4 2 5 5 2 2 3 1 3 2 6 3 7 2 1 1 4 2 8 12 4 3 4 4 5 4 4 6 8 4 3 3 2 4 4 4 7 8 13 11 10 10
8 10 8 5 1 3 2 2 4 5 2 2 1 3 1 3 3 4 3 5 2 4 4 4 4 3 5 1 2 2 3 3 4 3 4 4 3 4 4 5 11 14 13 10 10
7 8 9 4 2 0 2 2 5 1 1 1 1 3 3 4 2 3 2 3 8 5 2 2 2 4 5 4 1 2 4 4 5 4 3 0 5 4 6 10 12 16 13 11 10
9 6 10 7 2 1 1 5 4 3 2 2 1 1 2 3 1 2 4 2 4 7 2 3 1 2 2 3 3 3 1 2 3 2 3 4 2 1 5 5 9 12 13 12 10
9 7 7 7 2 1 2 3 2 4 5 3 2 2 1 2 1 1 2 1 2 3 5 2 3 3 3 3 2 2 2 2 2 3 2 4 2 5 8 9 8 11 15 11 8
4 3 5 4 2 2 3 3 4 3 1 4 4 2 3 2 3 3 3 1 2 2 2 3 4 1 1 3 1 0 1 1 1 3 4 2 5 1 10 10 9 14 14 11 9
3 1 7 2 1 3 2 2 2 5 2 2 3 4 4 3 2 2 3 5 4 5 2 2 1 2 2 3 4 3 4 1 4 3 1 3 5 3 7 13 18 15 13 11 10
4 3 4 1 0 2 1 2 2 2 2 2 2 1 2 3 1 1 1 2 3 4 4 3 1 2 2 1 2 3 4 3 4 2 4 4 5 1 6 12 20 16 14 12 11
4 2 1 4 3 2 3 3 3 2 1 2 2 2 2 3 2 0 2 2 0 2 2 2 3 2 5 2 2 4 5 6 4 2 3 5 2 4 5 6 15 14 11 10 11
5 2 2 2 3 3 3 4 3 3 3 4 3 6 2 1 2 2 3 1 4 3 2 2 2 1 5 2 2 4 6 9 8 8 5 1 5 5 12 11 17 17 13 11 10
5 5 5 2 1 3 4 5 5 1 4 3 3 5 5 3 2 3 3 4 0 2 2 3 2 1 4 3 3 6 9 9 11 12 10 11 13 4 7 18 17 16 13 10 10
9 6 3 2 2 1 1 1 3 6 2 4 4 1 4 2 3 3 1 1 3 1 4 2 2 1 3 1 4 7 11 14 5 5 11 8 6 1 6 13 19 16 14 11 10
Wind_Direction
35 30 26 34 36 31 26 21 17 15 9 3 350 224 210 210 211 200 205 212 215 210 197 200 187 193 204 216 206 212 257 216 223 216 217 138 132 114 87 124 105 72 102 176 171
27 26 24 24 23 18 16 23 25 27 26 30 54 103 173 187 179 185 196 205 205 215 209 189 185 187 208 214 213 213 216 203 234 244 196 141 133 133 149 133 103 102 127 161 170
14 14 13 8 8 9 5 2 11 21 25 33 51 95 139 158 151 194 200 204 211 213 208 198 185 200 215 210 208 221 208 198 225 4 53 146 155 158 196 165 177 159 161 166 164
356 0 0 2 0 2 7 3 9 19 22 35 56 70 102 122 109 310 194 195 208 206 212 203 202 216 206 208 205 207 247 277 113 60 118 136 150 151 228 87 90 172 179 169 165
342 348 350 356 358 356 7 16 9 19 27 34 77 79 84 61 21 327 155 165 179 180 199 200 199 211 204 208 196 230 218 72 64 94 102 136 161 156 109 102 98 149 164 160 160
340 346 349 354 348 355 15 19 22 40 50 54 68 35 46 67 32 112 147 170 145 187 198 217 232 258 258 200 193 204 127 116 108 88 91 125 81 340 90 113 130 142 156 162 169
344 351 357 359 6 38 34 16 29 55 59 69 66 74 72 40 20 19 123 151 180 204 194 215 235 269 275 205 210 189 116 117 143 142 115 127 107 144 123 137 142 148 156 164 170
347 356 5 14 39 48 38 21 44 54 58 57 73 62 75 51 25 25 12 211 204 213 206 185 225 277 270 222 170 147 133 138 143 166 171 183 176 122 145 152 157 153 156 163 171
346 2 15 26 48 50 33 40 43 17 26 40 39 42 60 18 10 18 69 106 134 192 177 175 278 252 231 161 160 200 160 170 137 222 138 201 130 143 153 174 157 155 155 163 168
340 9 32 35 6 348 39 15 49 38 6 9 20 68 52 27 31 21 82 68 58 76 134 252 250 219 201 152 182 193 171 163 137 198 178 193 114 119 160 187 161 167 161 172 182
329 352 17 53 43 22 57 2 357 36 49 55 26 90 66 48 76 42 1 29 66 97 169 237 252 184 178 188 179 150 211 153 106 103 184 185 144 156 156 200 155 183 164 174 189
335 311 271 275 22 29 43 73 70 103 65 47 61 63 47 64 44 52 45 39 231 212 217 88 36 354 179 163 334 263 219 104 66 66 54 184 161 136 152 196 180 181 194 188 182
349 314 275 265 284 316 22 36 40 137 240 47 46 55 40 89 63 71 164 212 253 118 20 93 4 311 299 133 214 20 68 168 127 136 245 108 268 143 123 120 167 183 188 146 159
4 346 297 267 274 274 288 354 355 110 78 4 8 13 348 268 65 96 314 344 35 40 82 46 321 302 287 65 349 70 324 89 123 103 164 70 243 175 152 169 186 176 199 169 164
7 10 23 245 242 242 280 318 341 129 72 332 354 349 357 51 43 340 21 36 45 1 187 343 15 9 49 2 330 127 288 79 93 82 67 216 72 277 137 173 181 162 148 139 153
358 6 15 45 347 298 290 285 110 42 47 352 26 351 108 52 53 10 17 70 258 63 63 96 68 45 15 6 8 191 88 56 71 104 43 355 113 256 183 189 151 140 146 148 143
341 357 6 15 334 28 46 76 33 75 67 339 332 338 42 32 82 23 59 35 39 51 21 28 31 113 20 20 240 303 105 27 21 19 216 293 57 265 122 26 136 147 153 153 146
329 340 359 11 326 54 68 358 70 292 153 190 240 266 85 1 124 58 10 60 31 12 155 127 344 355 353 29 298 73 131 143 168 178 213 282 227 248 98 86 94 129 147 152 146
336 326 2 5 9 359 70 57 8 45 23 308 249 324 137 137 239 161 92 87 46 -0 33 122 69 152 77 347 348 230 203 240 108 49 72 201 145 93 128 142 154 156 162 153 141
338 332 320 347 18 33 61 112 75 31 334 258 220 287 90 349 231 6 96 277 101 63 321 64 79 346 116 241 226 337 246 77 7 95 250 269 227 223 187 186 181 170 162 146 142
1 353 327 340 36 45 105 110 135 141 105 321 354 289 52 6 9 10 41 110 42 2 290 5 116 211 308 219 121 18 291 260 103 133 180 190 259 250 195 178 171 175 153 153 157
26 261 342 18 331 331 82 83 104 142 171 205 274 319 339 2 21 99 5 44 4 320 24 62 114 135 96 72 27 328 311 257 126 234 173 152 272 352 186 172 168 153 161 173 176
334 285 338 339 16 100 227 83 338 171 192 208 183 146 358 333 294 69 116 107 28 346 8 4 228 89 345 353 143 248 197 276 76 41 208 141 263 14 141 165 166 159 176 183 185
349 333 342 41 10 125 167 187 168 222 269 298 350 258 208 222 139 3 146 159 350 20 339 342 307 202 180 169 121 196 199 203 153 132 227 217 182 188 197 189 173 178 177 190 192
356 26 316 335 66 9 336 151 165 200 237 206 218 258 236 250 211 185 124 204 204 179 248 263 261 26 280 181 237 232 200 196 200 221 200 308 203 212 195 191 200 200 199 189 195
11 0 327 289 290 274 135 218 216 123 171 218 249 176 178 256 29 35 140 209 100 186 255 162 270 3 273 164 268 275 249 232 214 233 252 262 275 153 124 185 188 192 186 194 198
1 342 338 267 173 274 288 161 224 126 214 341 307 179 225 341 52 72 74 47 18 333 210 254 228 134 275 149 297 293 238 220 222 207 211 221 221 200 169 166 171 177 187 194 186